[[[{"header":{"parameterUnit":"kt","parameterCategory":2,"dx":1,"dy":1,"la1":30.253999710083008,"la2":30.299108505249023,"lo1":-89.0895004272461,"lo2":-89.04439544677734,"nx":28,"ny":28,"refTime":"2022-09-22T21:00:00:Z","depth":0,"parameterNumber":1,"parameterNumberName":"U-component_of_WINDS"},"data":[-5.6143,-5.6288,-5.6294,-5.6461,-5.6495,-5.6609,-5.6652,-5.6708,-5.6755,-5.6891,-5.6971,-5.6993,-5.7042,-5.7138,-5.7224,-5.7232,-5.7266,-5.731,-5.7311,-5.7109,-5.7081,-5.7054,-5.7019,-5.7319,-5.7319,-5.7518,-5.7519,-5.7521,-5.5986,-5.6021,-5.6113,-5.6206,-5.6284,-5.6244,-5.6315,-5.6382,-5.6486,-5.6546,-5.6626,-5.6747,-5.6844,-5.688,-5.6974,-5.704,-5.7026,-5.7064,-5.7057,-5.7065,-5.685,-5.6812,-5.7073,-5.7073,-5.7073,-5.7073,-5.7073,-5.7073,-5.5701,-5.5788,-5.5848,-5.5948,-5.5998,-5.606,-5.6144,-5.6169,-5.6259,-5.636,-5.6352,-5.647,-5.6531,-5.6651,-5.6693,-5.6784,-5.6743,-5.6787,-5.6797,-5.6807,-5.6815,-5.6518,-5.6801,-5.6801,-5.68,-5.6799,-5.6799,0,-5.5493,-5.5493,-5.5583,-5.5674,-5.5747,-5.5819,-5.5887,-5.5939,-5.5943,-5.6018,-5.6126,-5.6189,-5.6315,-5.6417,-5.6509,-5.6544,-5.651,-5.651,-5.6539,-5.6541,-5.653,-5.6532,-5.6176,-5.6501,-5.6499,-5.6497,-5.6496,-5.6495,-5.5201,-5.5305,-5.5374,-5.5435,-5.5474,-5.5576,-5.5637,-5.5633,-5.5698,-5.5781,-5.5859,-5.5962,-5.6044,-5.6218,-5.6247,-5.6342,-5.6326,-5.6448,-5.634,-5.6337,-5.6322,-5.6314,-5.6321,-5.6468,-5.6471,-5.6474,-5.6476,0,-5.5035,-5.5048,-5.5211,-5.527,-5.5288,-5.5396,-5.5446,-5.5534,-5.555,-5.5674,-5.5702,-5.5728,-5.5835,-5.5846,-5.5973,-5.5974,-5.6147,-5.6132,-5.6123,-5.6119,-5.6226,-5.6214,-5.6582,-5.6627,-5.6322,-5.6325,-5.6327,0,-5.479,-5.4927,-5.4937,-5.5032,-5.5182,-5.5175,-5.5325,-5.5354,-5.5408,-5.5505,-5.547,-5.5562,-5.5562,-5.5655,-5.5659,-5.5803,-5.5829,-5.5837,-5.5836,-5.5838,-5.5837,-5.5871,-5.5854,-5.5835,-5.5833,-5.5832,-5.583,0,-5.4525,-5.4695,-5.4848,-5.4889,-5.4967,-5.5039,-5.5075,-5.5137,-5.5199,-5.528,-5.5319,-5.5416,-5.5469,-5.5543,-5.5546,-5.5472,-5.5725,-5.5624,-5.5733,-5.5733,-5.5787,-5.5783,-5.6108,-5.5828,-5.5827,-5.5827,-5.5826,0,-5.4329,-5.4412,-5.4635,-5.4697,-5.4742,-5.4845,-5.4938,-5.5029,-5.5097,-5.5106,-5.5171,-5.5148,-5.528,-5.5177,-5.5355,-5.5257,-5.531,-5.5331,-5.5339,-5.5349,-5.5233,-5.5409,-5.5722,-5.5752,-5.536,-5.5356,-5.5353,0,-5.4019,-5.425,-5.4245,-5.4458,-5.4565,-5.4516,-5.463,-5.4693,-5.4714,-5.4807,-5.483,-5.4938,-5.4865,-5.49,-5.4987,-5.5015,-5.5144,-5.4999,-5.513,-5.5134,-5.5108,-5.5396,-5.5437,-5.5652,-5.5303,-5.5309,-5.5312,0,-5.3782,-5.3878,-5.3917,-5.3961,-5.4044,-5.4136,-5.4268,-5.4373,-5.4434,-5.4512,-5.462,-5.4775,-5.4723,-5.4784,-5.4777,-5.4868,-5.5057,-5.4802,-5.4803,-5.4843,-5.5282,-5.5319,-5.5355,-5.5032,-5.5038,-5.5043,-5.5273,0,-5.3472,-5.3591,-5.3698,-5.3803,-5.3875,-5.4012,-5.4023,-5.4098,-5.4082,-5.4102,-5.4264,-5.4323,-5.4432,-5.4479,-5.4467,-5.4673,-5.4639,-5.4585,-5.4484,-5.4675,-5.4751,-5.4782,-5.437,-5.4367,-5.4364,-5.4362,0,0,-5.3171,-5.3342,-5.3336,-5.3464,-5.3524,-5.3473,-5.3617,-5.367,-5.3781,-5.3823,-5.3767,-5.3994,-5.4045,-5.4241,-5.4302,-5.4348,-5.4385,-5.4319,-5.4585,-5.461,-5.4633,-5.4714,-5.4747,-5.4358,-5.4357,-5.4356,-5.4356,0,-5.306,-5.3113,-5.3257,-5.3311,-5.3392,-5.3406,-5.3441,-5.3513,-5.3532,-5.3694,-5.3649,-5.3749,-5.3935,-5.3991,-5.4045,-5.4296,-5.4256,-5.433,-5.4458,-5.4561,-5.4589,-5.4614,-5.4699,-5.473,-5.435,-5.435,-5.435,0,-5.2825,-5.2877,-5.2949,-5.3087,-5.314,-5.3255,-5.3151,-5.3278,-5.3362,-5.3301,-5.3463,-5.3498,-5.3577,-5.3764,-5.3849,-5.38,-5.4138,-5.4037,-5.4052,-5.4062,-5.4162,-5.4195,-5.4225,-5.3829,-5.3827,-5.3825,0,0,-5.2727,-5.2839,-5.2895,-5.3064,-5.3101,-5.3125,-5.3188,-5.318,-5.3252,-5.3282,-5.3325,-5.3398,-5.3504,-5.3575,-5.3676,-5.3881,-5.3895,-5.3972,-5.3997,-5.4017,-5.4036,-5.4142,-5.4175,-5.3818,-5.3818,-5.3818,0,0,-5.2681,-5.2752,-5.2724,-5.2922,-5.2992,-5.3059,-5.3161,-5.3128,-5.3221,-5.3207,-5.32,-5.3219,-5.3395,-5.3432,-5.3335,-5.364,-5.354,-5.3564,-5.3609,-5.364,-5.3664,-5.3651,-5.3238,0,0,0,0,0,-5.2573,-5.2742,-5.2716,-5.2751,-5.2928,-5.3073,-5.3095,-5.3093,-5.3021,-5.3101,-5.3132,-5.3087,-5.3377,-5.3291,-5.3326,-5.3434,-5.3726,-5.3743,-5.3758,-5.3864,-5.3897,-5.3924,0,0,0,0,0,0,-5.2587,-5.263,-5.2712,-5.2786,-5.2825,-5.3067,-5.2944,-5.2947,-5.3012,-5.3001,-5.3083,-5.309,-5.3091,-5.3272,-5.3304,-5.3407,-5.3227,-5.3733,-5.3746,-5.3759,-5.3875,-5.3902,-5.3925,0,0,0,0,0,-5.2598,-5.2633,-5.2917,-5.2783,-5.2818,-5.2855,-5.2937,-5.294,-5.2989,-5.3039,-5.3045,-5.2982,-5.3095,-5.3121,-5.3291,-5.3393,-5.3205,-5.3217,-5.3742,-5.3753,-5.3762,-5.3888,0,0,0,0,0,0,-5.2606,-5.2636,-5.2923,-5.2934,-5.272,-5.2841,-5.286,-5.2933,-5.3023,-5.3031,-5.2937,-5.2927,-5.3099,-5.3119,-5.314,-5.3388,-5.3187,-5.3199,-5.3206,-5.375,-5.3758,-5.3766,0,0,0,0,0,0,-5.2617,-5.2645,-5.2929,-5.2848,-5.285,-5.2829,-5.2846,-5.2991,-5.3025,-5.2916,-5.291,-5.2931,-5.3068,-5.3118,-5.3134,-5.3361,-5.3173,-5.3184,-5.3193,-5.3198,-5.3757,-5.3764,0,0,0,0,0,0,-5.2629,-5.2653,-5.2846,-5.2847,-5.2847,-5.2963,-5.2957,-5.3139,-5.2955,-5.2913,-5.2939,-5.2931,-5.3069,-5.3084,-5.313,-5.3351,-5.3359,-5.3173,-5.3181,-5.3187,-5.319,0,0,0,0,0,0,0,-5.2638,-5.2479,-5.2862,-5.2845,-5.2845,-5.3029,-5.3032,-5.3035,-5.2954,-5.2947,-5.2941,-5.2935,-5.3107,-5.3119,-5.3132,-5.3343,0,0,-5.3172,-5.3178,0,0,0,0,0,0,0,0,-5.2469,-5.2476,-5.2862,-5.2864,-5.2867,-5.303,-5.3032,-5.3035,-5.2953,-5.2947,-5.2942,-5.2937,-5.311,-5.312,-5.3131,0,0,0,0,0,0,0,0,0,0,0,0,0,0,0,-5.2862,-5.2864,0,-5.303,-5.3032,-5.3034,-5.2952,-5.2948,-5.2943,-5.2939,-5.3113,-5.3122,-5.313,0,0,0,0,0,0,0,0,0,0,0,0,0,0,0,0,0,0,0,0,0,0,0,0,0,0,0,0,0,0,0,0,0,0,0,0,0,0,0,0,0,0,0,0,0,0,0,0,0,0,0,0,0,0,0,0,0,0,0,0,0,0,0,0,0,0,0,0,0]}],[{"header":{"parameterUnit":"kt","parameterCategory":2,"dx":1,"dy":1,"la1":30.253999710083008,"la2":30.299108505249023,"lo1":-89.0895004272461,"lo2":-89.04439544677734,"nx":28,"ny":28,"refTime":"2022-09-22T21:00:00:Z","depth":0,"parameterNumber":2,"parameterNumberName":"V-component_of_WINDS"},"data":[-3.4433,-3.4284,-3.4206,-3.3995,-3.3888,-3.3726,-3.3643,-3.3523,-3.3407,-3.3197,-3.306,-3.2959,-3.2804,-3.2614,-3.2455,-3.2411,-3.2347,-3.2349,-3.2296,-3.237,-3.2374,-3.2378,-3.2411,-3.2338,-3.2338,-3.223,-3.2229,-3.2228,-3.4478,-3.4373,-3.4243,-3.4062,-3.3945,-3.3894,-3.3742,-3.3646,-3.3501,-3.3357,-3.3221,-3.3028,-3.2862,-3.2704,-3.2527,-3.2443,-3.2406,-3.24,-3.2403,-3.2378,-3.2454,-3.249,-3.2433,-3.2433,-3.2433,-3.2433,-3.2433,-3.2433,-3.4538,-3.4454,-3.4302,-3.4158,-3.4045,-3.3923,-3.3824,-3.3708,-3.3573,-3.3391,-3.332,-3.3152,-3.2988,-3.2738,-3.2632,-3.2491,-3.2481,-3.2448,-3.2438,-3.243,-3.2431,-3.2584,-3.2458,-3.2458,-3.2457,-3.2457,-3.2457,0,-3.4558,-3.4499,-3.4372,-3.4219,-3.411,-3.3982,-3.3851,-3.3788,-3.3633,-3.3528,-3.3366,-3.3259,-3.3042,-3.2875,-3.2694,-3.259,-3.252,-3.2506,-3.2481,-3.2511,-3.2558,-3.2524,-3.2646,-3.2511,-3.2511,-3.2511,-3.2511,-3.2511,-3.4608,-3.4523,-3.4329,-3.4248,-3.416,-3.4032,-3.3938,-3.381,-3.3714,-3.3529,-3.3456,-3.3291,-3.3153,-3.2901,-3.2758,-3.2594,-3.2558,-3.2513,-3.2532,-3.2563,-3.2548,-3.2553,-3.2538,-3.2512,-3.2512,-3.2512,-3.2512,0,-3.4642,-3.4522,-3.4363,-3.418,-3.4131,-3.4043,-3.3882,-3.3789,-3.3688,-3.3543,-3.3502,-3.334,-3.3181,-3.3046,-3.2838,-3.277,-3.2603,-3.2575,-3.2656,-3.2641,-3.2583,-3.2587,-3.243,-3.2399,-3.248,-3.2479,-3.2479,0,-3.4636,-3.4528,-3.4353,-3.4268,-3.414,-3.4018,-3.3892,-3.3793,-3.366,-3.3545,-3.3453,-3.3346,-3.3193,-3.3063,-3.2965,-3.2805,-3.2768,-3.2705,-3.2679,-3.2711,-3.2718,-3.2653,-3.2654,-3.2635,-3.2636,-3.2636,-3.2637,0,-3.47,-3.4484,-3.4346,-3.4276,-3.4072,-3.4007,-3.3917,-3.3769,-3.3678,-3.3538,-3.3475,-3.332,-3.3233,-3.3109,-3.2986,-3.3003,-3.2791,-3.2788,-3.2725,-3.2727,-3.2684,-3.2688,-3.2585,-3.2638,-3.2639,-3.2639,-3.2639,0,-3.4677,-3.455,-3.4372,-3.4197,-3.4145,-3.4054,-3.3896,-3.3789,-3.3637,-3.3573,-3.3461,-3.3384,-3.3242,-3.3247,-3.3045,-3.3102,-3.3018,-3.2946,-3.294,-3.2915,-3.2925,-3.2879,-3.28,-3.2783,-3.2894,-3.2896,-3.2898,0,-3.4779,-3.4571,-3.4469,-3.4301,-3.4186,-3.4092,-3.3986,-3.386,-3.3766,-3.3648,-3.3541,-3.3407,-3.3385,-3.3324,-3.3242,-3.3124,-3.3051,-3.3131,-3.2945,-3.294,-3.2984,-3.2911,-3.2932,-3.2833,-3.2924,-3.2921,-3.2919,0,-3.4845,-3.4609,-3.4587,-3.4502,-3.4324,-3.4229,-3.4109,-3.3955,-3.3882,-3.3753,-3.3643,-3.3455,-3.3427,-3.3331,-3.3252,-3.3174,-3.3096,-3.3155,-3.3149,-3.3142,-3.2929,-3.2947,-3.2931,-3.3058,-3.3055,-3.3052,-3.294,0,-3.4826,-3.4711,-3.465,-3.4475,-3.4382,-3.4274,-3.4145,-3.4063,-3.3999,-3.3905,-3.3745,-3.3609,-3.3447,-3.3398,-3.3336,-3.3203,-3.3203,-3.3178,-3.3171,-3.3128,-3.3086,-3.307,-3.3243,-3.3242,-3.3241,-3.3241,0,0,-3.4951,-3.4786,-3.4683,-3.457,-3.4485,-3.4394,-3.4288,-3.4194,-3.4007,-3.3946,-3.3944,-3.3661,-3.3551,-3.3369,-3.3345,-3.3283,-3.3243,-3.3267,-3.3151,-3.3142,-3.3133,-3.3091,-3.3077,-3.3239,-3.3239,-3.3239,-3.3238,0,-3.492,-3.4825,-3.4728,-3.4627,-3.4477,-3.4386,-3.4363,-3.4196,-3.4131,-3.3981,-3.3902,-3.3791,-3.3574,-3.3463,-3.3379,-3.3286,-3.3229,-3.3247,-3.3239,-3.3148,-3.314,-3.3132,-3.309,-3.3078,-3.3236,-3.3237,-3.3237,0,-3.4958,-3.4841,-3.4783,-3.4597,-3.4498,-3.4384,-3.4348,-3.4233,-3.4145,-3.4048,-3.39,-3.3806,-3.3651,-3.3502,-3.343,-3.3424,-3.3224,-3.3268,-3.3269,-3.3257,-3.3162,-3.3152,-3.3144,-3.3256,-3.3257,-3.3257,0,0,-3.4947,-3.4844,-3.468,-3.4581,-3.4524,-3.439,-3.4318,-3.425,-3.412,-3.4067,-3.3948,-3.3818,-3.3687,-3.3605,-3.3477,-3.3333,-3.3286,-3.3276,-3.3275,-3.3274,-3.3263,-3.3168,-3.3158,-3.326,-3.326,-3.326,0,0,-3.4941,-3.475,-3.4713,-3.4585,-3.4466,-3.4294,-3.4235,-3.4182,-3.4058,-3.4056,-3.3929,-3.3889,-3.3747,-3.3659,-3.3706,-3.3471,-3.3469,-3.3455,-3.3535,-3.3532,-3.353,-3.3553,-3.3647,0,0,0,0,0,-3.4847,-3.4774,-3.4743,-3.4703,-3.4468,-3.4313,-3.4281,-3.418,-3.4179,-3.4133,-3.4024,-3.3972,-3.3657,-3.3695,-3.3653,-3.3602,-3.329,-3.3285,-3.328,-3.3348,-3.3346,-3.3345,0,0,0,0,0,0,-3.4831,-3.4783,-3.4744,-3.4573,-3.4519,-3.4315,-3.429,-3.426,-3.4181,-3.4174,-3.3995,-3.3967,-3.3873,-3.3709,-3.3673,-3.3627,-3.3659,-3.3288,-3.3283,-3.3279,-3.3347,-3.3346,-3.3345,0,0,0,0,0,-3.4817,-3.4779,-3.443,-3.4573,-3.4526,-3.4373,-3.4293,-3.4267,-3.4203,-3.4037,-3.4008,-3.4134,-3.3875,-3.3837,-3.3687,-3.3646,-3.3683,-3.367,-3.3285,-3.3281,-3.3278,-3.3347,0,0,0,0,0,0,-3.4807,-3.4751,-3.4418,-3.44,-3.4596,-3.4382,-3.4346,-3.4274,-3.4069,-3.404,-3.4171,-3.4167,-3.3875,-3.3845,-3.3817,-3.3658,-3.3703,-3.3689,-3.3681,-3.3282,-3.3279,-3.3277,0,0,0,0,0,0,-3.4771,-3.4736,-3.4409,-3.4443,-3.4428,-3.4391,-3.4359,-3.4218,-3.4068,-3.4213,-3.4205,-3.4171,-3.3915,-3.3851,-3.3828,-3.3612,-3.3718,-3.3705,-3.3696,-3.3691,-3.328,-3.3278,0,0,0,0,0,0,-3.4754,-3.4724,-3.4447,-3.4436,-3.4422,-3.4206,-3.4263,-3.4026,-3.4106,-3.4224,-3.4109,-3.4111,-3.3922,-3.3897,-3.3837,-3.3631,-3.3617,-3.3718,-3.3709,-3.3703,-3.3699,0,0,0,0,0,0,0,-3.4741,-3.4968,-3.4529,-3.4429,-3.4417,-3.4229,-3.4224,-3.4219,-3.4106,-3.4107,-3.4109,-3.411,-3.3791,-3.3777,-3.3763,-3.3646,0,0,-3.3719,-3.3713,0,0,0,0,0,0,0,0,-3.4978,-3.4971,-3.4528,-3.4524,-3.4521,-3.4228,-3.4224,-3.422,-3.4106,-3.4107,-3.4109,-3.411,-3.3787,-3.3776,-3.3764,0,0,0,0,0,0,0,0,0,0,0,0,0,0,0,-3.4528,-3.4525,0,-3.4228,-3.4224,-3.4221,-3.4106,-3.4107,-3.4108,-3.4109,-3.3784,-3.3774,-3.3765,0,0,0,0,0,0,0,0,0,0,0,0,0,0,0,0,0,0,0,0,0,0,0,0,0,0,0,0,0,0,0,0,0,0,0,0,0,0,0,0,0,0,0,0,0,0,0,0,0,0,0,0,0,0,0,0,0,0,0,0,0,0,0,0,0,0,0,0,0]}]]]